Tracking 29892 objects as of 21-Nov-2024
HD Live streaming from Space Station
objects crossing your sky now

STARLINK-2644

Track STARLINK-2644 now!
10-day predictions
STARLINK-2644 is classified as:


NORAD ID: 48442
Int'l Code: 2021-040Q
Perigee: 553.2 km
Apogee: 555.4 km
Inclination: 53.1 °
Period: 95.6 minutes
Semi major axis: 6925 km
RCS: Unknown
Launch date: May 9, 2021
Source: United States (US)
Launch site: AIR FORCE EASTERN TEST RANGE (AFETR)
Your satellite tracking list
Your tracking list is empty




NASA's NSSDC Master Catalog

Two Line Element Set (TLE):
1 48442U 21040Q   24325.89081065  .00003915  00000-0  28148-3 0  9996
2 48442  53.0535 148.5822 0001619  89.1185 270.9990 15.06416683195218
Source of the keplerian elements: AFSPC